Torna al catalogo

METEOR 2-11 DEB

AttivoPO
NORAD 60003·DEBRIS·🇷🇺 Russia

Lanciato Jul 5, 1984 da Plesetsk Cosmodrome

Loading…

Prossimi Passaggi (prossime 24 ore)

TLE

ObsoletoSource: Space-Track

Epoca: Aug 20, 2026, 12:47 UTC

1 60003U 84072Y   26232.53323686  .00000596  00000-0  41193-3 0  9992
2 60003  82.5283 322.5907 0024379 153.9131 206.3271 13.97551156475319

Traccia METEOR 2-11 DEB in tempo reale con AllMySat

Download on the App Store